[Date Prev][Date Next][Thread Prev][Thread Next] - [Date Index][Thread Index][Author Index]
2 Line ISS Keps 10-21
- Subject: [sarex] 2 Line ISS Keps 10-21
- From: "Dave Larsen PhD" <doc@xxxxxxxxxxx>
- Date: Thu, 21 Oct 2004 16:05:14 -0700
ISS
1 25544U 98067A 04295.26861383 .00017763 00000-0 15315-3 0 9595
2 25544 51.6369 42.4197 0008795 253.5656 152.0678 15.69316380338128
----
Via the sarex mailing list at AMSAT.ORG courtesy of AMSAT-NA.
To unsubscribe, send "unsubscribe sarex" to Majordomo@amsat.org
AMSAT Home